KI5FU-13 Weather Reports


Display with metric or nautical units.
time (UTC)temp
F
wind
direction
speed
MPH
gust
MPH
rain 1hr
in
rain 24hr
in
rain mn
in
humidity
%
barometer
mb
20260504081519 62 152 3.0 9.0 0.00 0.00 0.00 63 1016.1
20260504070108 63 163 3.0 6.0 0.00 0.00 0.00 62 1017.2
20260504044533 65 138 4.0 9.0 0.00 0.00 0.00 59 1018.3
20260504043044 65 157 4.0 10.0 0.00 0.00 0.00 58 1018.5
20260504041536 65 155 6.0 11.0 0.00 0.00 0.00 58 1018.5
20260504040031 66 153 5.0 9.0 0.00 0.00 0.00 57 1018.6
20260504034531 66 157 6.0 12.0 0.00 0.00 0.00 55 1018.6
20260504033036 67 160 7.0 11.0 0.00 0.00 0.00 54 1018.6
20260504031529 67 145 7.0 12.0 0.00 0.00 0.00 53 1018.4
20260504030032 68 146 8.0 10.0 0.00 0.00 0.00 52 1018.5
20260504024529 68 155 7.0 11.0 0.00 0.00 0.00 52 1018.5
20260504023029 69 360 7.0 13.0 0.00 0.00 0.00 51 1018.6
20260504021527 69 159 8.0 11.0 0.00 0.00 0.00 50 1018.2
20260504020027 70 148 6.0 12.0 0.00 0.00 0.00 49 1018.0
20260504014536 71 360 7.0 11.0 0.00 0.00 0.00 47 1017.8
20260504013025 71 159 7.0 14.0 0.00 0.00 0.00 46 1017.6
20260504011526 73 170 8.0 12.0 0.00 0.00 0.00 43 1017.5
20260504010026 74 160 6.0 10.0 0.00 0.00 0.00 41 1017.5
20260504004522 75 150 5.0 10.0 0.00 0.00 0.00 39 1017.5
20260504003026 76 157 4.0 8.0 0.00 0.00 0.00 38 1017.6
20260504001520 77 173 5.0 12.0 0.00 0.00 0.00 36 1017.8
20260504000019 78 159 7.0 12.0 0.00 0.00 0.00 34 1017.7
20260503234519 78 150 7.0 12.0 0.00 0.00 0.00 33 1017.7
20260503233017 79 360 7.0 14.0 0.00 0.00 0.00 33 1017.7
20260503231518 79 178 6.0 11.0 0.00 0.00 0.00 32 1017.7
20260503230015 79 169 7.0 10.0 0.00 0.00 0.00 32 1017.8
20260503224516 79 146 5.0 12.0 0.00 0.00 0.00 31 1018.0
20260503223011 80 146 5.0 12.0 0.00 0.00 0.00 31 1018.2
20260503221511 80 196 5.0 11.0 0.00 0.00 0.00 30 1018.4
20260503220009 80 142 5.0 13.0 0.00 0.00 0.00 30 1018.5
20260503214508 80 142 7.0 12.0 0.00 0.00 0.00 30 1018.6
20260503213004 80 150 5.0 15.0 0.00 0.00 0.00 30 1018.9
20260503211502 80 122 3.0 12.0 0.00 0.00 0.00 30 1019.1
20260503210059 80 151 10.0 13.0 0.00 0.00 0.00 30 1019.7
20260503204603 80 178 4.0 12.0 0.00 0.00 0.00 31 1019.9
20260503203058 81 134 5.0 9.0 0.00 0.00 0.00 32 1020.3
20260503201553 79 110 3.0 10.0 0.00 0.00 0.00 31 1020.4
20260503200050 80 124 8.0 14.0 0.00 0.00 0.00 32 1020.8
20260503194548 80 162 9.0 12.0 0.00 0.00 0.00 33 1020.8
20260503193047 79 169 6.0 13.0 0.00 0.00 0.00 33 1021.1
20260503191541 79 150 7.0 14.0 0.00 0.00 0.00 34 1021.4
20260503190043 79 210 9.0 13.0 0.00 0.00 0.00 35 1021.7
20260503184541 78 142 3.0 9.0 0.00 0.00 0.00 35 1021.8
20260503183037 79 121 7.0 11.0 0.00 0.00 0.00 37 1022.0
20260503181535 78 174 6.0 12.0 0.00 0.00 0.00 38 1022.2
20260503180044 77 187 7.0 12.0 0.00 0.00 0.00 38 1022.6
20260503174534 77 167 6.0 10.0 0.00 0.00 0.00 38 1022.8
20260503173029 77 127 3.0 8.0 0.00 0.00 0.00 39 1023.1
20260503171529 76 171 8.0 12.0 0.00 0.00 0.00 42 1023.3